Friday Harbor, WA
on Saturday, December 29, 2012

Saturday
Previous Day Next Day
Daily Summary
 ActualAverageRecord
Temperature
Mean Temperature °F °F  
Max Temperature 41°F 43°F 51°F (1998)
Min Temperature 35°F 34°F 26°F (2003)
Degree Days
Heating Degree Days 27    
Moisture
Dew Point 38°F   
Average Humidity 95    
Maximum Humidity 100    
Minimum Humidity 87    
Precipitation
Precipitation 0.02 in in in ()
Wind
Wind Speed 1 mph   
Max Wind Speed 6 mph   
Max Gust Speed mph   
Visibility 8 miles   
Events Rain   
Averages and records for this station are not official NWS values.
Key: T is trace of precipitation, MM is missing value
Source: NWS Daily Summary
Seasonal Weather Averages
Time(PST)TemperatureDew PointHumidity Pressure Visibility Wind DirectionWind SpeedGust SpeedPrecipitationEvents Conditions
12:46 AM 41.0°F 39.2°F 93% 30.17 in 10.0 miles Calm Calm - 0.00 in Rain Light Rain
12:53 AM 41.0°F 39.0°F 93% 30.18 in 10.0 miles Calm Calm - 0.00 in Rain Light Rain
1:53 AM 41.0°F 39.0°F 93% 30.17 in 10.0 miles Calm Calm - 0.00 in Rain Light Rain
2:53 AM 39.9°F 39.0°F 97% 30.18 in 10.0 miles Calm Calm - 0.00 in   Overcast
3:03 AM 39.2°F 39.2°F 100% 30.18 in 10.0 miles Calm Calm - N/A   Overcast
3:28 AM 41.0°F 39.2°F 93% 30.18 in 10.0 miles Calm Calm - N/A   Overcast
3:42 AM 41.0°F 39.2°F 93% 30.18 in 10.0 miles Calm Calm - N/A   Overcast
3:51 AM 41.0°F 39.2°F 93% 30.18 in 10.0 miles Calm Calm - 0.00 in Rain Light Rain
3:53 AM 41.0°F 39.0°F 93% 30.18 in 10.0 miles Calm Calm - 0.00 in Rain Light Rain
4:07 AM 41.0°F 39.2°F 93% 30.18 in 10.0 miles Calm Calm - 0.00 in Rain Light Rain
4:44 AM 41.0°F 37.4°F 87% 30.17 in 10.0 miles Calm Calm - 0.00 in   Overcast
4:53 AM 41.0°F 37.9°F 89% 30.18 in 10.0 miles ESE 3.5 mph - 0.00 in   Overcast
5:53 AM 41.0°F 37.9°F 89% 30.18 in 7.0 miles Calm Calm - 0.00 in Rain Light Rain
6:11 AM 39.2°F 37.4°F 93% 30.18 in 9.0 miles Calm Calm - 0.00 in Rain Light Rain
6:53 AM 39.9°F 37.9°F 93% 30.17 in 9.0 miles ESE 4.6 mph - 0.00 in Rain Light Rain
7:53 AM 39.9°F 37.0°F 89% 30.17 in 10.0 miles SE 5.8 mph - 0.00 in   Overcast
8:53 AM 39.9°F 37.9°F 93% 30.19 in 6.0 miles Calm Calm - 0.02 in Rain Light Rain
9:53 AM 39.9°F 37.9°F 93% 30.19 in 8.0 miles Calm Calm - 0.00 in   Overcast
10:32 AM 39.2°F 39.2°F 100% 30.19 in 10.0 miles Calm Calm - 0.00 in   Overcast
10:53 AM 41.0°F 39.0°F 93% 30.19 in 10.0 miles SE 3.5 mph - 0.00 in   Overcast
11:53 AM 39.9°F 37.9°F 93% 30.19 in 7.0 miles North 3.5 mph - N/A   Overcast
12:11 PM 39.2°F 39.2°F 100% 30.18 in 1.8 miles Calm Calm - N/A   Overcast
12:29 PM 39.2°F 39.2°F 100% 30.17 in 2.0 miles ENE 3.5 mph - N/A   Overcast
12:44 PM 39.2°F 39.2°F 100% 30.17 in 2.5 miles East 3.5 mph - N/A   Overcast
12:53 PM 39.9°F 39.0°F 97% 30.17 in 3.0 miles ESE 5.8 mph - 0.00 in Rain Light Rain
1:13 PM 39.2°F 39.2°F 100% 30.16 in 5.0 miles ESE 3.5 mph - 0.00 in   Overcast
1:53 PM 39.9°F 37.9°F 93% 30.17 in 5.0 miles Calm Calm - 0.00 in   Overcast
2:41 PM 39.2°F 39.2°F 100% 30.17 in 1.8 miles Calm Calm - N/A   Overcast
3:14 PM 39.2°F 39.2°F 100% 30.17 in 2.5 miles Calm Calm - 0.00 in   Overcast
3:26 PM 39.2°F 39.2°F 100% 30.17 in 3.0 miles Calm Calm - 0.00 in   Overcast
3:38 PM 41.0°F 39.2°F 93% 30.17 in 3.0 miles Calm Calm - 0.00 in   Overcast
3:53 PM 39.9°F 39.0°F 97% 30.18 in 9.0 miles Calm Calm - 0.00 in   Overcast
4:05 PM 39.2°F 39.2°F 100% 30.18 in 10.0 miles Calm Calm - N/A   Overcast
4:53 PM 39.9°F 39.0°F 97% 30.18 in 10.0 miles Calm Calm - N/A   Overcast
5:08 PM 39.2°F 39.2°F 100% 30.17 in 9.0 miles Calm Calm - N/A   Overcast
5:33 PM 41.0°F 39.2°F 93% 30.18 in 6.0 miles NE 3.5 mph - 0.00 in Rain Light Rain
5:40 PM 39.2°F 39.2°F 100% 30.18 in 5.0 miles Variable 3.5 mph - 0.00 in Rain Light Rain
5:53 PM 39.9°F 39.0°F 97% 30.19 in 9.0 miles Calm Calm - 0.00 in   Overcast
6:02 PM 39.2°F 39.2°F 100% 30.19 in 8.0 miles Calm Calm - N/A   Overcast
6:28 PM 41.0°F 39.2°F 93% 30.19 in 10.0 miles NE 3.5 mph - N/A   Overcast
6:39 PM 39.2°F 37.4°F 93% 30.19 in 10.0 miles NNE 4.6 mph - N/A   Overcast
6:53 PM 39.9°F 37.9°F 93% 30.20 in 10.0 miles NNE 5.8 mph - N/A   Overcast
7:53 PM 39.9°F 37.9°F 93% 30.21 in 10.0 miles Calm Calm - N/A   Overcast
8:53 PM 39.9°F 37.9°F 93% 30.22 in 8.0 miles Calm Calm - N/A   Overcast
9:11 PM 39.2°F 37.4°F 93% 30.22 in 8.0 miles Calm Calm - N/A   Overcast
9:33 PM 39.2°F 37.4°F 93% 30.23 in 7.0 miles Calm Calm - N/A   Overcast
10:27 PM 37.4°F 35.6°F 93% 30.24 in 10.0 miles Calm Calm - N/A   Scattered Clouds
10:53 PM 36.0°F 35.1°F 97% 30.25 in 8.0 miles Calm Calm - N/A   Partly Cloudy
11:07 PM 35.6°F 35.6°F 100% 30.24 in 6.0 miles Calm Calm - N/A   Mostly Cloudy
11:53 PM 35.1°F 34.0°F 96% 30.26 in 5.0 miles Calm Calm - N/A   Mostly Cloudy
Moon Phase
Dec. 29 Jan. 04 Jan. 11 Jan. 18 Jan. 26
Sunrise:08:04 AM (PST) Moon Rise:06:12 PM (PST)12/29
Sunset:04:25 PM (PST) Moon Set:08:32 AM (PST)12/29

Copyright © 2014 The Weather Underground, Inc.